Weather History for Angel Fire, NM

Change the Weather History Date:

Wednesday, May 29, 2013

  Actual Average (KSKX) Record (KSKX)
Temperature  
Mean Temperature 50 °F -  
Max Temperature 61 °F 76 °F 91 °F (2000)
Min Temperature 39 °F 38 °F 32 °F (2012)
Degree Days  
Heating Degree Days 15    
Moisture  
Dew Point 19 °F    
Average Humidity 28    
Maximum Humidity 54    
Minimum Humidity 15    
Precipitation  
Precipitation 0.00 in - - ()
Sea Level Pressure  
Sea Level Pressure 29.88 in    
Wind  
Wind Speed 12 mph (West)    
Max Wind Speed 31 mph    
Max Gust Speed 44 mph    
Visibility 10 miles    
Events      
Averages and records for this station are not official NWS values.
T = Trace of Precipitation, MM = Missing Value Source: NWS Daily Summary

Daily Weather History Graph

Daily Weather History Graph

Search for Another Location

Airport:

Trip Planner

Search our weather history database for the weather conditions in past years. The results will help you decide how hot, cold, wet, or windy it might be!

Date:

Astronomy

May. 29, 2013 Rise Set
Actual Time 5:45 AM MDT 8:11 PM MDT
Civil Twilight 5:15 AM MDT 8:41 PM MDT
Nautical Twilight 4:39 AM MDT 9:18 PM MDT
Astronomical Twilight 3:58 AM MDT 9:59 PM MDT
Moon No Moon Rise 10:43 AM MDT (5/29)
Length of Visible Light 15h 25m
Length of Day
14h 26m
Waning Gibbous, 72% of the Moon is Illuminated
May 29
Waning Gibbous
May 31
Last Quarter
Jun 8
New
Jun 16
First Quarter
Jun 23
Full

Hourly Weather History & Observations

Time (MDT) Temp. Windchill Dew Point Humidity Pressure Visibility Wind Dir Wind Speed Gust Speed Precip Events Conditions
12:15 AM 43.2 °F - 11.5 °F 28% 29.92 in 10.0 mi Calm Calm - N/A   Clear
12:35 AM 42.6 °F - 11.3 °F 28% 29.92 in 10.0 mi Calm Calm - N/A   Clear
12:55 AM 39.4 °F - 12.7 °F 34% 29.91 in 10.0 mi Calm Calm - N/A   Clear
1:15 AM 41.0 °F - 10.9 °F 29% 29.91 in 10.0 mi Calm Calm - N/A   Clear
1:35 AM 54.0 °F - 10.4 °F 18% 29.91 in 10.0 mi WSW 13.8 mph 25.3 mph N/A   Clear
1:55 AM 53.6 °F - 11.1 °F 18% 29.90 in 10.0 mi WSW 19.6 mph 23.0 mph N/A   Clear
2:15 AM 53.2 °F - 13.1 °F 20% 29.90 in 10.0 mi WSW 18.4 mph 27.6 mph N/A   Clear
2:35 AM 52.3 °F - 13.5 °F 21% 29.90 in 10.0 mi WSW 18.4 mph 25.3 mph N/A   Clear
2:55 AM 50.5 °F - 14.9 °F 24% 29.90 in 10.0 mi West 8.1 mph - N/A   Clear
3:15 AM 49.8 °F - 15.8 °F 26% 29.90 in 10.0 mi West 10.4 mph 16.1 mph N/A   Clear
3:35 AM 48.7 °F - 19.0 °F 31% 29.90 in 10.0 mi WSW 5.8 mph - N/A   Clear
3:55 AM 48.9 °F - 21.2 °F 34% 29.90 in 10.0 mi SW 10.4 mph - N/A   Clear
4:15 AM 48.2 °F - 23.2 °F 37% 29.90 in 10.0 mi SW 3.5 mph - N/A   Clear
4:35 AM 46.2 °F - 23.4 °F 41% 29.90 in 10.0 mi Calm Calm - N/A   Clear
4:55 AM 45.1 °F - 23.2 °F 42% 29.90 in 10.0 mi Calm Calm - N/A   Clear
5:15 AM 41.9 °F - 23.0 °F 47% 29.90 in 10.0 mi Calm Calm - N/A   Clear
5:35 AM 41.5 °F 37.8 °F 24.8 °F 51% 29.90 in 10.0 mi SE 5.8 mph - N/A   Clear
5:55 AM 44.2 °F - 25.7 °F 48% 29.90 in 10.0 mi Calm Calm - N/A   Clear
6:15 AM 42.8 °F 39.3 °F 25.9 °F 51% 29.90 in 10.0 mi East 5.8 mph - N/A   Clear
6:35 AM 42.1 °F - 26.6 °F 54% 29.91 in 10.0 mi Calm Calm - N/A   Clear
6:55 AM 46.4 °F 44.3 °F 28.6 °F 50% 29.92 in 10.0 mi WNW 4.6 mph - N/A   Clear
7:15 AM 47.8 °F - 29.7 °F 49% 29.92 in 10.0 mi West 13.8 mph - N/A   Clear
7:35 AM 49.1 °F - 30.9 °F 50% 29.91 in 10.0 mi West 12.7 mph 17.3 mph N/A   Clear
7:55 AM 49.5 °F - 31.6 °F 50% 29.90 in 10.0 mi West 10.4 mph 19.6 mph N/A   Clear
8:15 AM 50.0 °F - 31.8 °F 50% 29.90 in 10.0 mi West 6.9 mph 18.4 mph N/A   Clear
8:35 AM 51.4 °F - 31.6 °F 47% 29.89 in 10.0 mi West 11.5 mph 18.4 mph N/A   Clear
8:55 AM 52.9 °F - 28.4 °F 39% 29.88 in 10.0 mi West 17.3 mph 23.0 mph N/A   Clear
9:15 AM 54.1 °F - 26.6 °F 35% 29.88 in 10.0 mi West 19.6 mph 26.5 mph N/A   Clear
9:35 AM 53.8 °F - 28.0 °F 37% 29.89 in 10.0 mi West 16.1 mph 28.8 mph N/A   Clear
9:55 AM 52.3 °F - 29.7 °F 42% 29.89 in 10.0 mi West 17.3 mph 24.2 mph N/A   Scattered Clouds
10:15 AM 53.2 °F - 29.8 °F 41% 29.89 in 10.0 mi WSW 12.7 mph 16.1 mph N/A   Mostly Cloudy
10:35 AM 52.7 °F - 28.9 °F 40% 29.89 in 10.0 mi West 15.0 mph 23.0 mph N/A   Mostly Cloudy
10:55 AM 55.6 °F - 25.0 °F 31% 29.88 in 10.0 mi West 18.4 mph 28.8 mph N/A   Mostly Cloudy
11:15 AM 56.3 °F - 26.2 °F 32% 29.87 in 10.0 mi West 21.9 mph 31.1 mph N/A   Mostly Cloudy
11:35 AM 54.9 °F - 25.5 °F 32% 29.87 in 10.0 mi WNW 25.3 mph 33.4 mph N/A   Mostly Cloudy
11:55 AM 56.3 °F - 20.8 °F 25% 29.88 in 10.0 mi West 10.4 mph 32.2 mph N/A   Scattered Clouds
12:15 PM 57.2 °F - 22.3 °F 26% 29.87 in 10.0 mi West 23.0 mph 35.7 mph N/A   Scattered Clouds
12:35 PM 59.2 °F - 19.6 °F 22% 29.87 in 10.0 mi West 18.4 mph 33.4 mph N/A   Scattered Clouds
12:55 PM 59.4 °F - 18.3 °F 20% 29.87 in 10.0 mi West 21.9 mph 39.1 mph N/A   Clear
1:15 PM 60.1 °F - 18.1 °F 20% 29.86 in 10.0 mi West 27.6 mph 39.1 mph N/A   Clear
1:35 PM 59.9 °F - 19.8 °F 21% 29.86 in 10.0 mi WNW 17.3 mph 33.4 mph N/A   Clear
1:55 PM 60.3 °F - 19.0 °F 20% 29.87 in 10.0 mi West 24.2 mph 41.4 mph N/A   Scattered Clouds
2:15 PM 61.2 °F - 18.0 °F 19% 29.85 in 10.0 mi WNW 26.5 mph 39.1 mph N/A   Clear
2:35 PM 61.3 °F - 15.8 °F 17% 29.85 in 10.0 mi West 26.5 mph 36.8 mph N/A   Clear
2:55 PM 61.7 °F - 17.1 °F 18% 29.84 in 10.0 mi West 26.5 mph 39.1 mph N/A   Clear
3:15 PM 61.7 °F - 14.5 °F 16% 29.83 in 10.0 mi West 31.1 mph 41.4 mph N/A   Clear
3:35 PM 61.5 °F - 14.4 °F 16% 29.83 in 10.0 mi WSW 31.1 mph 39.1 mph N/A   Clear
3:55 PM 61.5 °F - 13.3 °F 15% 29.82 in 10.0 mi West 26.5 mph 40.3 mph N/A   Clear
4:15 PM 61.5 °F - 12.9 °F 15% 29.83 in 10.0 mi West 27.6 mph 43.7 mph N/A   Clear
4:35 PM 61.7 °F - 13.3 °F 15% 29.83 in 10.0 mi West 29.9 mph 41.4 mph N/A   Clear
4:55 PM 61.0 °F - 13.6 °F 16% 29.83 in 10.0 mi WSW 17.3 mph 35.7 mph N/A   Clear
5:15 PM 61.0 °F - 13.5 °F 16% 29.83 in 10.0 mi West 26.5 mph 39.1 mph N/A   Clear
5:35 PM 61.0 °F - 12.9 °F 15% 29.83 in 10.0 mi West 27.6 mph 38.0 mph N/A   Clear
5:55 PM 60.8 °F - 12.6 °F 15% 29.83 in 10.0 mi WSW 21.9 mph 35.7 mph N/A   Clear
6:15 PM 60.3 °F - 12.6 °F 15% 29.82 in 10.0 mi West 26.5 mph 34.5 mph N/A   Clear
6:35 PM 59.0 °F - 11.8 °F 16% 29.82 in 10.0 mi WSW 24.2 mph 31.1 mph N/A   Clear
6:55 PM 58.8 °F - 10.9 °F 15% 29.83 in 10.0 mi West 23.0 mph 29.9 mph N/A   Clear
7:15 PM 57.4 °F - 9.3 °F 15% 29.83 in 10.0 mi West 27.6 mph 35.7 mph N/A   Clear
7:35 PM 56.3 °F - 9.1 °F 15% 29.85 in 10.0 mi West 23.0 mph 34.5 mph N/A   Clear
7:55 PM 55.4 °F - 11.8 °F 18% 29.85 in 10.0 mi West 18.4 mph 29.9 mph N/A   Clear
8:15 PM 54.7 °F - 13.8 °F 20% 29.85 in 10.0 mi West 25.3 mph 34.5 mph N/A   Clear
8:35 PM 54.5 °F - 14.7 °F 21% 29.86 in 10.0 mi West 23.0 mph 33.4 mph N/A   Clear
8:55 PM 54.0 °F - 14.7 °F 21% 29.87 in 10.0 mi West 16.1 mph 32.2 mph N/A   Clear
9:15 PM 53.6 °F - 14.7 °F 21% 29.89 in 10.0 mi West 18.4 mph 32.2 mph N/A   Clear
9:35 PM 52.9 °F - 14.5 °F 22% 29.91 in 10.0 mi WNW 11.5 mph 26.5 mph N/A   Clear
9:55 PM 52.2 °F - 13.6 °F 22% 29.92 in 10.0 mi West 17.3 mph 23.0 mph N/A   Clear
10:15 PM 52.3 °F - 13.1 °F 21% 29.93 in 10.0 mi WNW 16.1 mph 29.9 mph N/A   Clear
10:35 PM 51.6 °F - 13.1 °F 22% 29.94 in 10.0 mi West 13.8 mph 20.7 mph N/A   Clear
10:55 PM 50.2 °F - 13.1 °F 23% 29.94 in 10.0 mi West 6.9 mph - N/A   Clear
11:15 PM 49.3 °F - 13.1 °F 24% 29.94 in 10.0 mi West 9.2 mph - N/A   Clear
11:35 PM 48.2 °F - 12.9 °F 24% 29.94 in 10.0 mi West 8.1 mph - N/A   Clear
11:55 PM 49.8 °F - 12.2 °F 22% 29.94 in 10.0 mi NW 4.6 mph 17.3 mph N/A   Clear